Tracking 18945 objects as of 21-Jan-2018
HD Live streaming from Space Station
objects crossing your sky now

SL-19 DEB

Track SL-19 DEB now!
10-day predictions


NORAD ID: 36038
Int'l Code: 2009-059C
Perigee: 707.0 km
Apogee: 722.4 km
Inclination: 98.2 °
Period: 98.9 minutes
Semi major axis: 7085 km
RCS: 0.8568 m2 (medium)
Launch date: November 2, 2009
Source: Commonwealth of Independent States (former USSR) (CIS)
Launch site: PLESETSK MISSILE AND SPACE COMPLEX (PKMTR)

Note: This is SATELLITE DEBRIS
aabbcc
Your satellite tracking list
Your tracking list is empty




NASA's NSSDC Master Catalog

Two Line Element Set (TLE):
1 36038U 09059C   18020.91830983 +.00000071 +00000-0 +26580-4 0  9998
2 36038 098.2104 219.8771 0010858 021.7950 115.9720 14.55566853436171
Source of the keplerian elements: AFSPC